TimeCST,TemperatureF,Dew PointF,Humidity,Sea Level PressureIn,VisibilityMPH,Wind Direction,Wind SpeedMPH,Gust SpeedMPH,PrecipitationIn,Events,Conditions,WindDirDegrees,DateUTC
12:15 AM,39.2,34.3,83,30.31,10.0,North,12.7,20.7,N/A,,Overcast,360,2013-12-07 06:15:00
12:35 AM,39.0,34.2,83,30.31,10.0,North,13.8,18.4,N/A,,Overcast,360,2013-12-07 06:35:00
12:55 AM,38.8,34.2,83,30.32,10.0,North,8.1,-,N/A,,Overcast,10,2013-12-07 06:55:00
1:15 AM,38.8,34.3,84,30.32,10.0,NNE,11.5,16.1,N/A,,Overcast,20,2013-12-07 07:15:00
1:35 AM,38.8,34.9,86,30.33,10.0,North,10.4,16.1,N/A,,Overcast,10,2013-12-07 07:35:00
1:55 AM,38.5,35.1,87,30.32,10.0,North,10.4,17.3,N/A,,Overcast,360,2013-12-07 07:55:00
2:15 AM,38.3,34.7,87,30.32,10.0,North,13.8,19.6,N/A,,Overcast,10,2013-12-07 08:15:00
2:35 AM,37.9,34.5,87,30.31,10.0,North,16.1,20.7,N/A,,Overcast,360,2013-12-07 08:35:00
2:55 AM,37.8,33.8,86,30.31,10.0,North,15.0,19.6,N/A,,Overcast,10,2013-12-07 08:55:00
3:15 AM,37.4,33.1,84,30.32,10.0,NNE,12.7,23.0,N/A,,Overcast,20,2013-12-07 09:15:00
3:35 AM,37.4,32.9,84,30.32,10.0,North,13.8,19.6,N/A,,Overcast,360,2013-12-07 09:35:00
3:55 AM,37.0,32.9,85,30.33,10.0,North,16.1,-,N/A,,Overcast,360,2013-12-07 09:55:00
4:15 AM,36.5,32.5,86,30.32,10.0,North,12.7,19.6,N/A,,Overcast,360,2013-12-07 10:15:00
4:35 AM,36.5,32.4,85,30.32,10.0,North,11.5,20.7,N/A,,Overcast,10,2013-12-07 10:35:00
4:55 AM,36.1,32.0,85,30.33,10.0,North,10.4,21.9,N/A,,Overcast,10,2013-12-07 10:55:00
5:15 AM,36.0,32.0,86,30.33,10.0,North,10.4,18.4,N/A,,Overcast,10,2013-12-07 11:15:00
5:35 AM,35.8,32.0,86,30.33,10.0,North,16.1,23.0,N/A,,Overcast,10,2013-12-07 11:35:00
5:55 AM,35.8,32.0,86,30.34,10.0,North,15.0,20.7,N/A,,Overcast,360,2013-12-07 11:55:00
6:00 AM,35.6,32.0,87,30.33,7.0,North,16.1,21.9,N/A,,Overcast,360,2013-12-07 12:00:00
6:50 AM,35.6,32.0,87,30.34,7.0,NNE,12.7,20.7,N/A,,Overcast,20,2013-12-07 12:50:00
7:50 AM,35.6,32.0,87,30.36,7.0,North,9.2,-,N/A,,Overcast,10,2013-12-07 13:50:00
8:53 AM,35.6,32.0,87,30.37,7.0,NNE,10.4,-,N/A,,Overcast,20,2013-12-07 14:53:00
9:50 AM,35.6,32.0,87,30.38,7.0,NNE,11.5,20.7,N/A,,Overcast,20,2013-12-07 15:50:00
10:52 AM,35.6,32.0,87,30.38,7.0,NNE,11.5,18.4,N/A,,Overcast,30,2013-12-07 16:52:00
11:57 AM,37.4,32.0,81,30.36,7.0,NNE,10.4,-,N/A,,Overcast,20,2013-12-07 17:57:00
12:53 PM,37.4,32.0,81,30.32,7.0,NNE,9.2,-,N/A,,Overcast,20,2013-12-07 18:53:00
1:50 PM,37.4,32.0,81,30.30,7.0,NNE,12.7,17.3,N/A,,Overcast,30,2013-12-07 19:50:00
2:50 PM,37.4,32.0,81,30.28,10.0,North,6.9,-,N/A,,Overcast,350,2013-12-07 20:50:00
3:55 PM,37.4,32.0,81,30.28,10.0,NE,8.1,-,N/A,,Overcast,40,2013-12-07 21:55:00
4:55 PM,37.4,32.0,81,30.28,10.0,NNE,8.1,-,N/A,,Overcast,20,2013-12-07 22:55:00
5:55 PM,37.4,32.0,81,30.29,10.0,NNE,8.1,-,N/A,,Overcast,20,2013-12-07 23:55:00
6:55 PM,37.4,32.0,81,30.30,10.0,NE,5.8,-,N/A,,Overcast,50,2013-12-08 00:55:00
7:55 PM,37.4,32.0,81,30.31,10.0,North,4.6,-,N/A,,Overcast,10,2013-12-08 01:55:00
8:55 PM,35.6,33.8,93,30.31,7.0,NE,6.9,-,N/A,,Overcast,40,2013-12-08 02:55:00
9:55 PM,35.6,33.8,93,30.31,7.0,NNE,4.6,-,N/A,,Overcast,30,2013-12-08 03:55:00
10:15 PM,35.6,32.4,88,30.31,10.0,NNE,4.6,-,N/A,,Overcast,20,2013-12-08 04:15:00
10:35 PM,35.6,32.5,89,30.31,10.0,NNE,4.6,-,N/A,,Overcast,30,2013-12-08 04:35:00
10:55 PM,35.1,32.2,89,30.31,7.0,NNE,5.8,-,N/A,,Overcast,30,2013-12-08 04:55:00
11:15 PM,35.1,32.4,90,30.29,7.0,North,5.8,-,N/A,,Overcast,360,2013-12-08 05:15:00
11:35 PM,35.1,32.5,91,30.28,7.0,NNE,6.9,-,N/A,,Overcast,20,2013-12-08 05:35:00
11:55 PM,35.1,32.4,90,30.29,7.0,North,4.6,-,N/A,,Overcast,10,2013-12-08 05:55:00